Other Public Products
Issued by NWS Charleston, SC

Current Version | Previous Version | Text Only | Print | Product List | Glossary Off
Versions: 1 2 3 4 5 6 7 8 9 10 11 12 13 14 15 16 17 18 19 20 21 22 23 24 25 26 27 28 29 30 31 32 33 34 35 36 37 38 39 40 41 42 43 44 45 46 47 48 49 50
092 FPUS82 KCHS 241443 OPUCHS TEST...KCHS/KSAV Gateway Observations...TEST National Weather Service Charleston SC 1000 AM EDT SUN SEP 24 2017 NOTE: "fair" indicates few or no clouds below 12,000 feet with no significant weather and/or obstructions to visibility. SCZ050-WAZ558-NCZ071-TXZ119-213-PAZ071-DCZ001-FLZ074-172-MI076- NYZ176-178-MAZ016-IL014-TNZ027-NJZ106-GAZ044-MD014-241500- ...Gateway Observations for Charleston International... CITY SKY/WX TMP DP RH WIND PRES REMARKS Chas Airport MOSUNNY 76 71 85 N13 30.02R Seattle MOCLDY 51 48 89 CALM 30.16R Charlotte PTSUNNY 74 65 73 N6 30.12S Dallas DFW PTSUNNY 77 70 79 S9 29.92R Dallas Love PTSUNNY 76 69 79 S7 29.93R Philladelphia SUNNY 81 63 54 N8 30.09F Wash National MOSUNNY 78 64 61 NW7 30.11S Baltimore MOSUNNY 81 65 58 N7 30.10R Miami PTSUNNY 83 77 82 NE7 29.89R HX 92 Detroit MOSUNNY 77 64 64 SE5 30.18S Newark SUNNY 80 62 54 N8 30.08F Laguardia SUNNY 79 63 57 NE5 30.07S J F K SUNNY 82 62 50 NE8 30.08S Boston Logan SUNNY 77 63 61 NE3 30.06F Ft. Lauderdale TSTM 78 77 96 E12 29.88R Chicago O`Hare SUNNY 79 63 57 SW5 30.09S Chicago Midway SUNNY 79 64 60 S6 30.10R Houston Bush MOSUNNY 79 75 87 CALM 29.90R Houston Hobby MOSUNNY 83 74 74 E5 29.89R Nashville MOSUNNY 75 69 81 CALM 30.08S Atlanta CLOUDY 73 65 75 E10 30.11R $$ GAZ044-118-TXZ119-213-NCZ071-DCZ001-MDZ014-506-PAZ021-071-NJZ106- NYZ176-178-MAZ106-OHZ011-021-055-MIZ076-KYZ091-ILZ014-INZ047- MNZ060-ONZ431-241500- ...Gateway Observations for Savannah International... CITY SKY/WX TMP DP RH WIND PRES REMARKS Savannah Arpt MOSUNNY 79 71 76 NE13 30.02R Atlanta CLOUDY 73 65 75 E10 30.11R Charlotte PTSUNNY 74 65 73 N6 30.12S Dallas DFW PTSUNNY 77 70 79 S9 29.92R Houston Bush MOSUNNY 79 75 87 CALM 29.90R Wash National MOSUNNY 78 64 61 NW7 30.11S Wash Dulles MOSUNNY 77 63 61 VRB6 30.13S Baltimore MOSUNNY 81 65 58 N7 30.10R Philadelphia SUNNY 81 63 54 N8 30.09F Newark SUNNY 80 62 54 N8 30.08F Laguardia SUNNY 79 63 57 NE5 30.07S J F K SUNNY 82 62 50 NE8 30.08S Boston SUNNY 77 63 61 NE3 30.06F Pittsburg SUNNY 73 63 70 VRB3 30.19S Akron SUNNY 79 63 57 E6 30.20R Cleveland SUNNY 81 64 56 CALM 30.20R Cincinnati SUNNY 74 63 68 E8 30.12S Columbus SUNNY 73 62 69 CALM 30.15S Detroit MOSUNNY 77 64 64 SE5 30.18S Chicago O`Hare SUNNY 79 63 57 SW5 30.09S Minneapolis PTSUNNY 74 65 73 S7 29.95S Indianapolis SUNNY 76 62 62 E6 30.12R Toronto Canada SUNNY 81 66 61 VRB2 30.16S $$

USA.gov is the U.S. government's official web portal to all federal, state and local government web resources and services.